When you browse on this site, cookies collect data to enhance your experience and personalize the content and advertising you see.
Visit our Privacy Policy to learn more. By continuing to use the site, you agree to this use of cookies and data.
  • In Hungary
  • List of Countries
  • For 7 days
  • Water Temperature
  • Satellite Maps
  • Weather Map
  • News
  • Weather Widgets
  • user-avatar
    Login

    Hourly Weather Tripoli

    Today, 18 December, Tuesday

    Time Temperature Precipitation Wind Pressure Humidity
    00:00 +8°C° 1.2 mm 2 mps 700 mmHg 93%
    01:00 +9°C° 0 mm 1 mps 700 mmHg 94%
    02:00 +8°C° 1 mm 2 mps 700 mmHg 94%
    03:00 +8°C° 1 mm 2 mps 700 mmHg 94%
    04:00 +7°C° 1 mm 2 mps 699 mmHg 94%
    05:00 +7°C° 0.8 mm 2 mps 699 mmHg 93%
    06:00 +7°C° 0.8 mm 2 mps 700 mmHg 93%
    07:00 +7°C° 0.8 mm 2 mps 700 mmHg 92%
    08:00 +8°C° 0.5 mm 2 mps 700 mmHg 89%
    09:00 +8°C° 0.5 mm 2 mps 700 mmHg 86%
    10:00 +9°C° 0.5 mm 2 mps 700 mmHg 83%
    11:00 +9°C° 0.3 mm 2 mps 700 mmHg 82%
    12:00 +9°C° 0.3 mm 2 mps 700 mmHg 80%
    13:00 +9°C° 0.3 mm 2 mps 701 mmHg 78%
    14:00 +9°C° 0.3 mm 2 mps 701 mmHg 80%
    15:00 +8°C° 0.3 mm 2 mps 701 mmHg 82%
    16:00 +7°C° 0.3 mm 2 mps 701 mmHg 84%
    17:00 +7°C° 0.1 mm 2 mps 701 mmHg 84%
    18:00 +7°C° 0.1 mm 2 mps 702 mmHg 85%
    19:00 +6°C° 0.1 mm 2 mps 702 mmHg 86%
    20:00 +6°C° 0 mm 2 mps 702 mmHg 86%
    21:00 +6°C° 0 mm 2 mps 703 mmHg 86%
    22:00 +5°C° 0 mm 2 mps 703 mmHg 86%
    23:00 +5°C° 0 mm 2 mps 703 mmHg 86%

    Tomorrow, 19 December, Wednesday

    Time Temperature Precipitation Wind Pressure Humidity
    00:00 +5°C° 0 mm 2 mps 704 mmHg 86%
    01:00 +5°C° 0 mm 2 mps 704 mmHg 86%
    02:00 +4°C° 0 mm 2 mps 704 mmHg 86%
    03:00 +4°C° 0 mm 2 mps 704 mmHg 86%
    04:00 +4°C° 0 mm 2 mps 704 mmHg 86%
    05:00 +4°C° 0 mm 2 mps 705 mmHg 86%
    06:00 +4°C° 0 mm 2 mps 705 mmHg 85%
    07:00 +4°C° 0 mm 2 mps 705 mmHg 84%
    08:00 +5°C° 0 mm 2 mps 706 mmHg 80%
    09:00 +7°C° 0 mm 1 mps 707 mmHg 75%
    10:00 +8°C° 0 mm 1 mps 707 mmHg 70%
    11:00 +9°C° 0 mm 1 mps 707 mmHg 68%
    12:00 +9°C° 0 mm 1 mps 707 mmHg 67%
    13:00 +10°C° 0 mm 1 mps 707 mmHg 65%
    14:00 +9°C° 0 mm 1 mps 707 mmHg 69%
    15:00 +8°C° 0 mm 1 mps 707 mmHg 73%
    16:00 +8°C° 0 mm 1 mps 707 mmHg 77%
    17:00 +7°C° 0 mm 1 mps 708 mmHg 80%
    18:00 +7°C° 0 mm 1 mps 708 mmHg 82%
    19:00 +6°C° 0 mm 1 mps 708 mmHg 85%
    20:00 +6°C° 0 mm 1 mps 708 mmHg 86%
    21:00 +6°C° 0 mm 1 mps 709 mmHg 88%
    22:00 +5°C° 0 mm 1 mps 709 mmHg 89%
    23:00 +5°C° 0 mm 1 mps 709 mmHg 89%

    Day after tomorrow, 20 December, Thursday

    Time Temperature Precipitation Wind Pressure Humidity
    00:00 +5°C° 0 mm 1 mps 709 mmHg 90%
    01:00 +5°C° 0 mm 1 mps 709 mmHg 90%
    02:00 +5°C° 0 mm 1 mps 709 mmHg 90%
    03:00 +4°C° 0 mm 1 mps 709 mmHg 90%
    04:00 +4°C° 0 mm 1 mps 709 mmHg 90%
    05:00 +4°C° 0 mm 1 mps 709 mmHg 90%
    06:00 +4°C° 0 mm 1 mps 709 mmHg 89%
    07:00 +4°C° 0 mm 1 mps 710 mmHg 89%
    08:00 +6°C° 0 mm 1 mps 710 mmHg 82%
    09:00 +8°C° 0 mm 1 mps 711 mmHg 76%
    10:00 +9°C° 0 mm 1 mps 711 mmHg 69%
    11:00 +10°C° 0 mm 1 mps 711 mmHg 67%
    12:00 +10°C° 0 mm 1 mps 710 mmHg 65%
    13:00 +11°C° 0 mm 1 mps 710 mmHg 63%
    14:00 +10°C° 0 mm 1 mps 710 mmHg 68%
    15:00 +9°C° 0 mm 1 mps 710 mmHg 73%
    16:00 +8°C° 0 mm 1 mps 710 mmHg 79%
    17:00 +8°C° 0 mm 1 mps 710 mmHg 82%
    18:00 +7°C° 0 mm 1 mps 710 mmHg 85%
    19:00 +7°C° 0 mm 1 mps 710 mmHg 88%
    20:00 +6°C° 0 mm 1 mps 710 mmHg 89%
    21:00 +6°C° 0 mm 1 mps 710 mmHg 89%
    22:00 +6°C° 0 mm 1 mps 710 mmHg 89%
    23:00 +6°C° 0 mm 1 mps 710 mmHg 88%

    21 December, Friday

    Time Temperature Precipitation Wind Pressure Humidity
    00:00 +6°C° 0 mm 1 mps 710 mmHg 86%
    01:00 +5°C° 0 mm 1 mps 710 mmHg 85%
    02:00 +5°C° 0 mm 1 mps 709 mmHg 84%
    03:00 +5°C° 0 mm 1 mps 709 mmHg 82%
    04:00 +5°C° 0 mm 1 mps 709 mmHg 81%
    05:00 +6°C° 0 mm 1 mps 709 mmHg 81%
    06:00 +6°C° 0 mm 1 mps 709 mmHg 81%
    07:00 +6°C° 0 mm 1 mps 710 mmHg 82%
    08:00 +8°C° 0.1 mm 1 mps 710 mmHg 79%
    09:00 +9°C° 0.1 mm 1 mps 711 mmHg 75%
    10:00 +11°C° 0.1 mm 1 mps 711 mmHg 72%
    11:00 +11°C° 0.3 mm 1 mps 711 mmHg 74%
    12:00 +11°C° 0.3 mm 1 mps 710 mmHg 76%
    13:00 +11°C° 0.3 mm 1 mps 710 mmHg 78%
    14:00 +11°C° 0.1 mm 1 mps 710 mmHg 81%
    15:00 +11°C° 0.1 mm 1 mps 710 mmHg 84%
    16:00 +10°C° 0.1 mm 1 mps 710 mmHg 87%
    17:00 +10°C° 0 mm 1 mps 710 mmHg 89%
    18:00 +9°C° 0 mm 1 mps 710 mmHg 90%
    19:00 +9°C° 0 mm 1 mps 710 mmHg 92%
    20:00 +8°C° 0 mm 1 mps 710 mmHg 92%
    21:00 +8°C° 0 mm 1 mps 710 mmHg 92%
    22:00 +8°C° 0 mm 1 mps 710 mmHg 92%
    23:00 +8°C° 0 mm 1 mps 710 mmHg 91%

    22 December, Saturday

    Time Temperature Precipitation Wind Pressure Humidity
    00:00 +8°C° 0 mm 1 mps 710 mmHg 90%
    01:00 +7°C° 0 mm 1 mps 710 mmHg 90%
    02:00 +7°C° 0 mm 1 mps 709 mmHg 89%
    03:00 +7°C° 0 mm 1 mps 709 mmHg 88%
    04:00 +7°C° 0 mm 1 mps 709 mmHg 88%
    05:00 +7°C° 0 mm 1 mps 709 mmHg 87%
    06:00 +7°C° 0 mm 1 mps 709 mmHg 87%
    07:00 +6°C° 0 mm 1 mps 709 mmHg 86%
    08:00 +8°C° 0 mm 1 mps 710 mmHg 80%
    09:00 +10°C° 0 mm 1 mps 711 mmHg 73%
    10:00 +12°C° 0 mm 1 mps 711 mmHg 67%
    11:00 +13°C° 0 mm 1 mps 711 mmHg 64%
    12:00 +13°C° 0 mm 1 mps 711 mmHg 60%
    13:00 +14°C° 0 mm 2 mps 710 mmHg 57%
    14:00 +13°C° 0 mm 2 mps 710 mmHg 63%
    15:00 +12°C° 0 mm 1 mps 710 mmHg 69%
    16:00 +11°C° 0 mm 1 mps 709 mmHg 75%
    17:00 +10°C° 0 mm 1 mps 709 mmHg 79%
    18:00 +9°C° 0 mm 1 mps 709 mmHg 83%
    19:00 +8°C° 0 mm 1 mps 710 mmHg 86%
    20:00 +8°C° 0 mm 1 mps 709 mmHg 86%
    21:00 +8°C° 0 mm 1 mps 709 mmHg 86%
    22:00 +7°C° 0 mm 1 mps 709 mmHg 87%
    23:00 +7°C° 0 mm 1 mps 709 mmHg 85%

    23 December, Sunday

    Time Temperature Precipitation Wind Pressure Humidity
    00:00 +7°C° 0 mm 1 mps 709 mmHg 83%
    01:00 +6°C° 0 mm 2 mps 709 mmHg 82%
    02:00 +6°C° 0 mm 2 mps 708 mmHg 81%
    03:00 +6°C° 0 mm 2 mps 708 mmHg 80%
    04:00 +6°C° 0 mm 2 mps 708 mmHg 80%
    05:00 +7°C° 0 mm 1 mps 708 mmHg 79%
    06:00 +7°C° 0 mm 1 mps 708 mmHg 79%
    07:00 +7°C° 0 mm 1 mps 708 mmHg 79%
    08:00 +9°C° 0 mm 1 mps 709 mmHg 73%
    09:00 +11°C° 0 mm 1 mps 709 mmHg 67%
    10:00 +13°C° 0 mm 1 mps 710 mmHg 61%
    11:00 +13°C° 0 mm 1 mps 709 mmHg 60%
    12:00 +14°C° 0 mm 1 mps 709 mmHg 58%
    13:00 +15°C° 0 mm 2 mps 709 mmHg 57%
    14:00 +13°C° 0 mm 1 mps 709 mmHg 63%
    15:00 +12°C° 0 mm 1 mps 708 mmHg 70%
    16:00 +11°C° 0 mm 1 mps 708 mmHg 76%
    17:00 +10°C° 0 mm 1 mps 708 mmHg 79%
    18:00 +10°C° 0 mm 1 mps 709 mmHg 82%
    19:00 +9°C° 0 mm 1 mps 709 mmHg 85%
    20:00 +9°C° 0 mm 1 mps 709 mmHg 85%
    21:00 +8°C° 0 mm 1 mps 709 mmHg 85%
    22:00 +8°C° 0 mm 1 mps 709 mmHg 85%
    23:00 +8°C° 0 mm 1 mps 709 mmHg 85%
    Show more